Regional Weather Roundup
Issued by NWS Green Bay, WI

Home | Current Version | Previous Version | Graphics & Text | Print | Product List | Glossary Off
Versions: 1 2 3 4 5 6 7 8 9 10 11 12 13 14 15 16 17 18 19 20 21 22 23 24 25 26 27 28 29 30 31 32 33 34 35 36 37 38 39 40 41 42 43 44 45 46 47 48 49 50

000
ASUS43 KGRB 221911
RWRGRB

NORTH-CENTRAL AND NORTHEAST WISCONSIN REGIONAL WEATHER ROUNDUP
NATIONAL WEATHER SERVICE GREEN BAY WI
200 PM CDT THU JUN 22 2017

WIZ005-009-010>012-018-019-222000-
NORTH CENTRAL WISCONSIN

CITY           SKY/WX    TMP DP  RH WIND       PRES   REMARKS
IRONWOOD       CLOUDY    68  50  52 SW5       29.70F
MANITOWISH WTR CLOUDY    64  63  98 SW8       29.73F
ARBOR VITAE    LGT RAIN  64  62  93 SW6       29.71F
EAGLE RIVER    RAIN      64  63  97 SW6       29.73F
LAND O LAKES   CLOUDY    64  62  92 SW6       29.74F
RHINELANDER    LGT RAIN  64  63  96 SW6       29.76F FOG
PHILLIPS       LGT RAIN  63  63 100 CALM      29.69F
ANTIGO         HVY RAIN  64  63  97 NW12      29.80R
TOMAHAWK       NOT AVBL
MERRILL        HVY RAIN  66  64  93 NW3       29.74F
$$

WIZ013-073-222000-
NORTHEAST WISCONSIN

CITY           SKY/WX    TMP DP  RH WIND       PRES   REMARKS
IRON MOUNTAIN  LGT RAIN  71  65  81 W8        29.72R
MARINETTE      LGT RAIN  70  68  93 W5        29.73R
OCONTO         CLOUDY    72  68  88 W6        29.72R
$$

WIZ017-030-035>037-045-222000-
CENTRAL WISCONSIN

CITY           SKY/WX    TMP DP  RH WIND       PRES   REMARKS
MEDFORD        CLOUDY    64  62  94 CALM      29.71F
WAUSAU         RAIN      65  65 100 VRB6      29.69F FOG
MOSINEE        RAIN      64  64 100 SW6       29.76F FOG
MARSHFIELD     RAIN      65  63  93 N16G26    29.75R FOG
WISC RAPIDS    RAIN      69  68  96 E6        29.73F FOG
STEVENS POINT  HVY RAIN  65  65 100 NW7       29.75F
WAUPACA        RAIN      74  70  85 SW7       29.75S
SHAWANO        LGT RAIN  71  69  91 W9G17     29.75R
CLINTONVILLE   LGT RAIN  70  68  94 W8        29.75R
WAUTOMA        LGT RAIN  70  67  90 SW3       29.75F
$$

WIZ038-039-048-051-222000-
FOX VALLEY

CITY           SKY/WX    TMP DP  RH WIND       PRES   REMARKS
NWS GREEN BAY  LGT RAIN  76  71  85 SW12      29.73R
APPLETON       PTSUNNY   73  64  73 SW13      29.76R
OSHKOSH        CLOUDY    74  66  76 W9G21     29.76R
FOND DU LAC    LGT RAIN  73  66  78 W12       29.79R
$$

WIZ022-050-052-222000-
EAST CENTRAL WISCONSIN

CITY           SKY/WX    TMP DP  RH WIND       PRES   REMARKS
EPHRAIM        LGT RAIN  69  67  94 W8        29.71S
WASHINGTON ISL LGT RAIN  68  67  96 SW8       29.72R
STURGEON BAY     N/A     75  68  78 SW10        N/A
MANITOWOC      LGT RAIN  75  66  73 SW7       29.76R
SHEBOYGAN      LGT RAIN  75  68  78 SW7       29.76S
$$

LMZ563-521-522-541>543-222000-
LAKESHORE

STATION/POSITION TIME  TEMP    WIND        PRES    VSBY  WAVE
                       AIR SEA DIR/SP/G                  HT/PER
                 (UTC) (F)     (DEG/KT/KT) (MB)    (MI)  (FT/S)
SHEBOYGAN LKSHOR 1900   75     200/  5/  6 1007.3R
KEWAUNEE LKSHORE 1848   55     170/  9/ 10 1006.8R
NORTHPORT PIER   1840   69     150/  5/  6 1006.1R
N MID LAKE BUOY  1850   59 55  190/ 12/ 14 1006.0F         3/ 5
CHAMBERS ISLAND  1840   68     190/  5/ 12 1006.1R
MENOMINEE LKSHOR 1848          280/  7/ 12 1005.5R
$$




USA.gov is the U.S. government's official web portal to all federal, state and local government web resources and services.